Temperature
15 15 15 15 15 15 15 15 15 15 15 15 15 15 15 15 15 15 15 15 15 15 15 15 15 15 15 15 15 15 15 15 15 14 14 15 14 14 14 14 14 14 14
15 15 15 15 15 15 15 15 15 15 15 15 15 15 15 15 15 15 15 15 15 15 14 14 14 14 14 15 15 15 14 14 14 14 14 14 14 14 14 14 14 14 14
14 15 15 15 15 15 15 15 15 15 15 15 15 15 15 15 15 15 15 14 14 14 14 14 14 14 14 14 15 14 14 14 13 14 14 14 14 14 14 14 14 14 14
14 14 14 15 15 15 14 15 15 15 15 15 15 15 15 15 15 15 14 14 14 14 14 14 14 14 14 14 14 14 14 13 13 13 13 13 13 13 13 13 13 13 13
13 14 14 14 14 14 14 14 14 14 14 15 15 15 14 14 14 14 14 14 14 14 14 14 14 14 14 14 14 14 13 13 13 13 13 13 13 13 13 13 13 13 13
13 13 14 14 14 14 14 14 14 14 14 14 14 14 14 14 14 14 14 14 14 14 14 14 14 14 14 14 14 13 13 13 13 13 13 13 13 13 13 13 13 13 13
13 13 13 13 14 14 14 14 14 14 14 14 14 14 14 14 14 14 14 14 14 14 14 14 14 14 14 14 13 13 13 13 13 13 13 13 12 12 13 12 13 13 13
12 13 13 13 13 13 14 14 14 14 14 14 14 14 14 14 14 13 13 13 13 13 14 13 13 13 13 13 13 13 12 12 12 13 12 12 12 12 12 12 12 12 12
11 12 12 12 13 13 13 13 13 13 13 13 13 13 13 13 13 13 13 13 13 13 13 13 13 13 13 13 13 13 12 12 12 12 12 12 12 12 12 12 12 12 12
11 11 12 12 12 12 13 13 13 13 13 13 13 13 13 13 13 13 13 13 13 13 13 13 13 13 13 13 13 12 12 12 12 12 12 12 12 12 12 12 12 12 12
10 11 11 11 12 12 12 12 12 12 12 12 12 12 12 12 12 12 12 12 12 12 12 12 12 13 12 12 12 12 12 12 12 12 12 12 12 12 12 11 11 12 12
10 10 10 11 11 11 12 12 12 12 12 12 12 12 12 12 12 12 12 12 12 12 12 12 12 12 12 12 12 12 12 12 12 12 12 12 12 12 12 11 11 12 12
9 9 10 10 11 11 11 11 11 12 12 11 11 12 12 12 12 12 12 11 12 11 11 11 11 11 11 11 11 11 11 11 11 11 11 11 11 11 11 11 11 11 11
8 9 9 10 10 10 10 11 11 11 11 11 11 11 11 11 11 11 11 11 11 11 11 11 11 11 11 11 11 11 11 11 11 11 11 11 11 11 11 11 11 11 11
8 8 9 9 9 10 10 10 10 10 11 11 11 11 11 11 11 11 11 11 11 11 11 11 10 10 11 11 11 11 11 11 11 11 11 11 11 11 11 11 11 10 10
7 8 8 8 9 9 9 9 10 10 10 10 10 10 10 10 10 10 10 10 10 10 10 10 10 10 10 10 10 10 10 10 10 10 10 10 10 10 10 10 10 10 10
7 7 7 8 8 8 9 9 9 9 9 10 10 10 10 10 10 10 10 10 10 10 10 10 10 10 10 10 10 10 10 10 10 10 10 10 10 10 10 10 10 10 10
6 6 7 7 7 8 8 8 8 9 9 9 9 9 9 9 9 10 10 10 10 10 10 10 10 10 10 10 10 10 10 10 10 10 10 10 10 10 10 10 10 10 10
6 6 6 7 7 7 7 8 8 8 8 9 9 9 9 9 9 9 9 9 9 9 9 9 9 9 9 9 9 9 9 9 9 9 9 9 9 9 9 9 9 10 10
5 5 6 6 6 6 7 7 7 8 8 8 8 8 8 8 8 8 8 9 9 9 9 9 9 9 9 9 9 9 9 9 9 9 9 9 9 9 9 9 9 9 9
5 5 5 5 6 6 6 6 7 7 7 7 7 8 8 8 8 8 8 8 8 8 8 8 8 8 8 8 8 8 8 8 8 9 9 9 9 9 9 9 9 9 9
4 4 5 5 5 5 6 6 6 6 6 6 7 7 7 7 7 8 8 8 8 8 8 8 8 8 8 8 8 7 7 7 8 8 8 8 8 8 9 8 8 9 9
3 4 4 4 5 5 5 5 5 5 6 6 6 6 6 7 7 7 7 7 7 7 7 7 7 7 7 7 7 7 7 7 7 7 7 8 8 8 8 8 8 8 8
3 3 3 4 4 4 5 5 5 5 5 5 5 6 6 6 6 7 7 7 7 7 7 7 7 7 7 7 7 7 7 7 7 6 7 7 7 7 8 8 8 8 8
2 2 3 3 3 4 4 4 4 4 5 5 5 5 5 6 6 6 6 6 6 6 6 6 6 6 6 6 6 6 7 7 7 6 6 6 6 7 7 7 7 7 7
1 2 2 2 2 3 3 3 4 4 4 4 4 5 5 5 5 5 6 6 6 6 6 6 6 6 6 6 6 6 6 6 6 6 6 6 6 6 6 7 7 7 7
Wind_Speed
4 4 5 5 5 7 8 9 10 11 11 11 11 11 11 11 12 12 13 13 14 14 15 16 17 18 18 19 19 19 19 20 20 21 21 20 20 20 19 20 20 19 21
3 4 5 5 6 6 8 9 9 10 10 10 11 10 10 11 11 12 12 13 13 14 15 16 17 17 18 18 18 18 17 17 18 19 20 20 20 21 21 21 20 19 21
5 6 6 6 6 6 7 8 9 10 10 10 10 10 10 11 11 11 12 13 13 14 15 16 16 17 17 17 17 16 15 14 14 15 17 17 18 19 20 21 21 20 20
6 6 5 6 6 6 6 8 9 9 9 10 10 10 11 10 11 11 12 13 14 14 15 16 16 16 16 16 15 14 13 12 12 13 14 16 16 18 19 20 20 20 20
7 7 6 7 6 6 6 7 9 9 9 9 9 10 10 10 11 11 12 13 14 14 15 15 15 16 15 14 13 12 11 11 13 15 16 17 16 18 19 19 19 19 19
7 8 7 7 7 6 6 7 8 9 9 9 9 9 9 10 11 12 13 13 14 14 14 15 15 14 14 13 12 10 9 10 13 14 15 15 15 17 18 18 18 18 18
6 8 7 8 8 8 7 7 7 8 9 9 8 9 9 10 10 12 12 13 13 14 14 14 14 13 13 12 11 9 9 11 14 14 15 15 15 17 17 17 17 18 17
6 7 7 9 9 9 8 7 7 7 8 8 8 8 9 9 10 11 12 13 13 13 13 13 13 13 12 11 9 8 9 11 13 14 14 14 15 16 16 17 17 17 17
8 8 7 8 7 8 8 8 8 8 7 8 8 7 8 9 10 11 13 13 13 12 12 12 12 12 11 9 8 8 10 12 12 11 12 13 14 15 15 15 15 15 16
7 7 7 7 7 6 6 7 8 8 7 7 8 8 8 9 10 11 12 12 12 12 12 12 12 11 11 9 7 7 9 11 12 12 11 12 13 13 14 14 14 14 14
6 6 6 6 6 6 5 5 7 7 7 6 7 8 9 8 8 10 11 12 12 12 12 12 11 11 10 8 6 5 7 9 12 11 10 12 13 12 13 13 13 13 13
4 4 5 5 6 6 5 5 5 5 6 6 5 6 6 6 7 9 11 12 12 12 12 11 10 9 8 5 4 5 6 10 10 10 10 12 12 12 12 11 11 12 12
3 3 4 5 6 5 5 4 4 4 4 5 6 5 5 6 7 8 8 9 10 10 9 9 8 7 6 5 4 5 7 9 10 10 10 11 11 11 11 11 11 11 11
3 3 3 5 4 5 5 4 4 4 4 4 5 5 6 5 5 5 5 6 7 7 7 6 5 5 5 5 6 7 8 9 9 9 10 11 11 10 10 10 10 10 10
2 3 3 4 4 4 4 3 4 4 4 4 5 5 5 5 3 4 4 4 4 5 5 4 3 4 4 5 6 7 8 9 10 9 9 10 9 9 9 9 9 9 9
2 2 2 3 4 4 3 3 3 3 4 4 5 5 5 5 4 4 3 3 3 4 4 4 4 4 4 5 6 6 7 8 9 9 9 9 8 8 8 8 8 8 8
3 2 1 2 4 4 3 3 3 3 4 4 4 5 5 5 4 4 3 3 3 4 4 4 5 5 4 4 4 5 6 6 7 7 8 7 7 7 7 7 7 7 7
3 2 1 2 3 3 3 3 3 3 4 4 4 4 5 5 5 4 3 3 4 5 4 3 3 3 3 3 3 3 4 5 5 5 6 6 6 6 7 7 6 6 6
3 3 2 1 1 2 2 2 2 2 3 3 4 4 4 4 4 4 3 3 5 4 3 3 3 3 3 3 3 2 2 3 3 4 5 5 6 6 6 7 6 6 5
2 3 3 2 1 1 1 2 1 2 3 3 4 4 4 3 3 4 3 4 4 3 2 3 3 3 3 3 3 2 2 2 2 3 3 4 5 5 5 6 5 5 4
3 3 2 3 2 1 1 1 1 1 2 2 3 4 4 3 3 3 3 3 3 2 3 3 3 3 2 3 3 2 2 1 1 2 3 3 3 4 4 5 5 5 4
2 2 2 2 2 1 1 1 1 1 1 1 2 3 3 3 3 3 3 2 2 3 3 3 3 2 2 2 2 2 1 1 1 1 1 2 2 3 4 3 4 4 4
1 2 2 2 2 2 1 1 1 2 1 1 1 1 2 2 2 3 3 3 3 3 3 3 3 2 3 1 1 1 2 2 1 1 1 1 1 1 2 3 2 4 4
3 3 2 2 2 2 1 1 3 2 2 1 1 1 1 2 2 2 3 2 2 2 3 2 2 1 3 3 1 0 1 1 2 1 1 1 1 1 1 2 2 2 3
3 3 3 3 2 2 1 1 2 2 1 0 1 2 1 1 2 2 2 2 2 2 2 2 2 2 1 2 2 0 0 0 0 2 2 1 1 1 1 1 2 1 2
4 4 4 4 3 2 1 1 2 2 1 1 1 1 1 1 1 2 1 1 2 2 2 2 2 2 1 1 1 1 1 1 1 1 1 2 2 1 1 1 1 2 1
Wind_Direction
48 61 87 77 90 105 109 112 112 116 116 113 110 107 106 104 101 99 96 97 98 98 97 96 94 91 88 85 83 81 80 80 79 78 74 72 72 74 75 76 74 71 73
60 82 91 85 92 106 112 115 117 117 118 116 114 112 111 108 105 104 101 100 99 100 99 98 96 94 92 89 87 85 83 84 84 84 78 73 74 75 74 74 76 75 74
61 80 85 81 92 101 115 118 120 118 121 120 118 116 113 111 108 105 104 101 100 100 100 98 96 96 95 93 90 88 86 85 86 87 84 80 78 78 78 77 77 76 75
56 75 73 71 90 95 112 121 124 122 119 123 120 117 115 113 111 109 107 104 101 100 99 99 98 97 97 96 93 91 87 82 79 80 81 79 80 82 80 79 78 77 76
52 64 61 69 77 95 99 119 127 123 118 119 121 117 117 116 113 110 106 105 102 101 100 99 99 99 99 99 96 91 82 76 73 79 78 79 81 84 83 81 80 78 77
50 58 61 61 65 80 97 102 125 124 119 115 117 119 118 117 115 110 105 103 102 103 103 102 100 100 102 100 97 87 74 73 76 79 80 82 84 86 85 83 81 79 78
53 55 57 60 64 67 83 98 106 121 119 116 113 122 122 118 114 112 108 105 103 104 104 104 104 101 102 101 96 79 68 73 82 77 79 82 88 90 87 84 82 79 77
60 59 60 54 59 60 71 87 92 102 117 117 113 119 122 119 114 116 113 109 106 104 105 105 103 101 100 99 93 73 63 75 85 84 82 84 89 91 89 86 83 80 78
58 57 57 50 54 58 61 74 84 89 102 114 115 115 120 119 118 119 116 113 110 108 107 105 105 101 100 99 90 76 67 77 82 88 88 89 93 92 91 88 85 82 80
58 53 47 44 43 51 60 71 78 82 86 107 112 108 117 122 122 122 118 117 115 114 112 109 106 105 100 97 91 78 73 78 80 80 86 94 98 95 94 91 87 85 83
54 53 43 34 35 43 58 66 78 80 75 91 107 105 110 120 123 123 121 120 118 118 118 115 110 107 103 99 93 83 78 83 82 80 86 96 99 98 97 94 92 90 88
42 41 42 33 29 38 48 57 70 81 78 75 95 104 103 114 122 121 121 121 120 118 119 119 118 115 109 108 95 87 87 90 86 88 91 97 99 99 99 97 97 95 92
45 34 29 28 30 37 39 49 49 63 67 70 78 89 87 91 102 109 116 118 120 120 119 123 123 119 115 114 103 90 86 90 91 94 97 99 102 100 99 99 102 99 96
37 30 21 27 25 33 44 49 49 52 54 57 71 82 84 85 92 100 114 130 135 136 131 131 132 127 118 113 102 89 84 88 95 97 98 100 104 106 106 102 102 103 99
22 32 19 22 26 28 41 47 50 53 61 64 73 77 85 87 92 99 102 117 131 134 134 134 123 110 103 93 86 82 82 89 97 101 102 103 106 110 110 108 104 106 104
9 39 32 23 22 31 40 45 48 56 81 77 71 70 81 91 95 103 102 103 105 117 133 128 106 95 84 83 78 78 82 92 95 100 100 105 112 116 116 115 111 107 112
348 12 37 27 25 29 37 44 55 60 83 78 76 77 74 83 95 105 116 105 108 123 116 110 104 95 89 81 73 74 79 85 97 102 106 103 107 119 126 121 118 114 109
353 359 14 14 32 29 30 45 47 60 81 79 82 81 73 79 92 96 101 108 113 120 114 117 115 105 97 91 80 67 78 84 93 102 104 107 110 115 124 127 122 120 116
1 6 2 9 42 39 28 37 54 74 85 89 90 81 77 82 96 95 95 97 102 105 101 112 115 119 116 107 101 86 81 86 91 105 102 107 112 116 127 128 129 128 125
14 17 8 359 14 37 49 43 51 93 74 78 89 89 87 85 97 99 95 98 102 107 108 107 112 108 122 126 112 88 76 91 92 99 107 107 111 115 129 140 137 137 140
17 13 4 9 354 32 94 99 120 130 115 89 74 91 91 92 108 107 91 101 103 118 122 117 115 118 112 116 104 86 45 53 97 108 109 109 110 113 115 138 143 143 143
27 3 2 9 353 302 198 156 164 147 153 120 75 82 91 87 105 124 106 113 116 123 119 116 116 118 121 118 123 121 107 16 10 80 98 109 122 120 110 119 125 129 137
21 360 358 0 2 340 343 85 107 107 107 96 102 107 76 93 95 127 127 125 126 128 138 141 131 124 155 167 117 127 152 190 187 239 179 136 115 92 99 94 119 132 135
9 9 7 3 3 351 31 133 148 137 142 190 184 144 71 82 83 120 123 127 136 133 143 154 126 132 154 170 190 312 164 145 156 172 231 198 148 127 86 95 94 145 149
22 15 3 359 352 351 351 177 149 130 138 117 134 122 118 68 63 87 123 126 139 138 145 150 145 148 167 175 172 183 47 21 172 169 206 223 245 230 112 105 114 114 165
30 19 7 1 346 358 1 114 134 140 135 126 102 129 121 134 56 31 86 112 138 138 147 166 158 164 173 190 170 157 159 176 228 193 194 209 230 245 230 138 132 130 167
Height
1520 1520 1522 1523 1525 1526 1528 1529 1531 1532 1533 1534 1535 1537 1538 1539 1540 1540 1541 1542 1543 1544 1544 1545 1545 1546 1547 1547 1548 1548 1548 1548 1549 1549 1549 1549 1550 1550 1551 1551 1551 1551 1551
1519 1520 1522 1523 1525 1527 1528 1530 1531 1533 1534 1535 1536 1538 1539 1540 1541 1542 1543 1544 1544 1545 1546 1547 1547 1548 1548 1549 1549 1550 1550 1551 1551 1551 1552 1552 1552 1552 1553 1553 1553 1553 1553
1518 1520 1521 1523 1525 1527 1529 1530 1532 1533 1535 1536 1537 1539 1540 1541 1542 1543 1544 1545 1546 1547 1547 1548 1549 1549 1550 1551 1551 1552 1552 1553 1553 1553 1554 1554 1554 1555 1555 1555 1555 1555 1556
1519 1520 1521 1523 1525 1527 1529 1531 1532 1534 1535 1537 1538 1539 1541 1542 1543 1544 1545 1546 1547 1548 1549 1550 1550 1551 1552 1552 1553 1554 1554 1555 1555 1556 1556 1556 1556 1557 1557 1557 1557 1558 1558
1519 1520 1521 1523 1525 1527 1529 1531 1533 1534 1536 1537 1539 1540 1542 1543 1544 1545 1546 1547 1548 1549 1550 1551 1552 1552 1553 1554 1555 1556 1556 1557 1557 1557 1558 1558 1558 1559 1559 1559 1559 1559 1559
1519 1520 1521 1523 1525 1527 1529 1531 1533 1534 1536 1538 1539 1541 1542 1544 1545 1546 1547 1548 1549 1550 1551 1552 1553 1554 1555 1556 1557 1557 1558 1559 1559 1559 1559 1560 1560 1560 1561 1561 1561 1561 1561
1519 1520 1521 1523 1525 1526 1529 1530 1532 1534 1536 1538 1539 1541 1543 1544 1545 1546 1548 1549 1550 1551 1552 1553 1554 1555 1556 1557 1558 1559 1560 1560 1560 1561 1561 1561 1562 1562 1562 1563 1563 1563 1563
1519 1519 1521 1523 1524 1526 1528 1530 1532 1534 1536 1537 1539 1541 1543 1544 1545 1547 1548 1549 1550 1552 1553 1554 1555 1556 1557 1558 1559 1560 1561 1561 1562 1562 1562 1563 1563 1564 1564 1564 1564 1564 1565
1519 1519 1521 1522 1524 1526 1527 1529 1531 1533 1535 1537 1539 1540 1542 1544 1545 1547 1548 1549 1550 1552 1553 1554 1556 1557 1558 1559 1560 1561 1562 1562 1563 1563 1564 1564 1565 1565 1565 1566 1566 1566 1566
1518 1518 1520 1522 1523 1525 1527 1528 1530 1532 1534 1536 1538 1540 1542 1543 1545 1546 1547 1549 1551 1552 1553 1555 1556 1557 1558 1560 1561 1562 1562 1563 1563 1564 1565 1565 1566 1566 1566 1567 1567 1567 1567
1517 1518 1519 1521 1522 1524 1525 1527 1529 1531 1533 1535 1537 1539 1541 1543 1544 1546 1547 1549 1550 1552 1553 1555 1556 1557 1559 1560 1561 1562 1563 1564 1564 1565 1566 1567 1567 1567 1567 1568 1568 1568 1568
1516 1517 1518 1520 1521 1523 1524 1526 1528 1530 1532 1534 1536 1538 1540 1542 1543 1545 1547 1548 1550 1552 1553 1554 1556 1557 1559 1560 1561 1563 1563 1564 1565 1565 1566 1567 1568 1568 1568 1569 1569 1569 1569
1515 1516 1517 1519 1520 1522 1523 1525 1526 1529 1530 1533 1535 1537 1539 1540 1542 1544 1546 1547 1549 1551 1552 1554 1556 1557 1558 1560 1561 1562 1563 1564 1565 1566 1567 1568 1568 1569 1569 1569 1569 1570 1570
1515 1515 1516 1518 1519 1520 1522 1523 1525 1527 1528 1531 1533 1535 1537 1539 1541 1543 1545 1546 1548 1550 1552 1553 1555 1557 1558 1560 1561 1562 1563 1564 1565 1566 1567 1568 1568 1569 1569 1570 1570 1570 1570
1514 1514 1515 1516 1517 1519 1520 1522 1523 1525 1527 1529 1531 1533 1535 1537 1539 1541 1543 1545 1547 1549 1551 1552 1554 1556 1557 1559 1560 1562 1563 1564 1565 1566 1566 1567 1568 1569 1570 1570 1570 1570 1570
1512 1513 1514 1515 1516 1517 1518 1520 1522 1523 1525 1527 1530 1532 1534 1536 1537 1539 1541 1544 1546 1548 1549 1551 1553 1555 1556 1558 1559 1560 1562 1563 1564 1565 1566 1567 1568 1569 1569 1570 1570 1570 1570
1511 1512 1513 1514 1515 1516 1517 1518 1520 1521 1524 1525 1528 1530 1532 1534 1536 1537 1540 1542 1544 1546 1548 1550 1552 1554 1555 1556 1558 1559 1561 1562 1563 1564 1565 1566 1567 1568 1569 1569 1570 1570 1570
1509 1510 1511 1512 1513 1514 1515 1517 1518 1520 1521 1523 1525 1528 1530 1532 1534 1536 1538 1540 1542 1544 1547 1548 1550 1551 1553 1555 1556 1558 1559 1561 1562 1563 1564 1565 1566 1567 1568 1568 1569 1569 1570
1508 1508 1509 1510 1511 1512 1513 1515 1516 1518 1520 1521 1523 1525 1528 1530 1532 1534 1536 1538 1540 1543 1545 1547 1548 1550 1551 1553 1554 1556 1558 1559 1560 1562 1563 1564 1564 1565 1566 1567 1568 1568 1569
1506 1507 1507 1508 1509 1510 1511 1513 1514 1516 1518 1519 1521 1523 1526 1528 1530 1532 1534 1536 1539 1541 1543 1545 1546 1548 1549 1551 1552 1554 1556 1558 1559 1560 1561 1562 1563 1564 1564 1565 1566 1567 1568
1504 1505 1505 1506 1507 1508 1509 1510 1511 1513 1515 1517 1519 1521 1524 1526 1528 1530 1532 1534 1537 1539 1541 1543 1544 1546 1547 1549 1550 1551 1554 1555 1557 1558 1559 1560 1561 1562 1563 1563 1564 1565 1566
1502 1503 1503 1504 1505 1506 1507 1508 1509 1511 1513 1515 1517 1519 1521 1524 1526 1528 1530 1532 1535 1537 1539 1540 1542 1543 1545 1547 1548 1550 1551 1554 1554 1556 1557 1558 1559 1560 1560 1561 1562 1563 1563
1500 1501 1501 1502 1502 1504 1506 1506 1508 1510 1511 1513 1515 1517 1519 1522 1524 1526 1528 1530 1532 1534 1536 1538 1540 1541 1543 1545 1546 1548 1549 1550 1551 1553 1554 1555 1556 1557 1558 1559 1559 1560 1561
1499 1499 1499 1500 1501 1502 1503 1504 1506 1506 1508 1510 1513 1515 1518 1520 1522 1523 1526 1528 1530 1532 1534 1536 1537 1539 1541 1542 1544 1546 1547 1547 1548 1549 1551 1552 1553 1554 1555 1556 1557 1558 1559
1497 1498 1497 1498 1499 1500 1501 1501 1503 1504 1506 1509 1510 1512 1515 1517 1519 1521 1523 1525 1527 1530 1532 1534 1535 1537 1538 1539 1540 1542 1544 1545 1546 1546 1547 1548 1550 1551 1552 1553 1554 1554 1555
1496 1496 1496 1496 1497 1498 1498 1499 1500 1502 1504 1506 1508 1509 1512 1514 1516 1518 1521 1522 1524 1527 1529 1531 1532 1534 1536 1537 1538 1540 1541 1542 1543 1544 1544 1545 1546 1547 1548 1550 1550 1551 1552